Weather in Vardenis

Armenia     40°11′04″N   45°43′37″E
temp.,
°C
wind,
m/s
gust,
m/s
humid.,
%
clouds,
%
prec.,
mm/h
press.,
hPa
HPBL,
m
16 april, fri
fri1601:00+3e3366100 0.0 101944
04:00+2e215823 0.0 101914
07:00+2e225812 0.0 102025
10:00+8s12416 0.0 10181158
13:00+10w454250 0.2 10181832
16:00+11wnw564324 0.4 10171983
19:00+8wnw34502 0.1 1018149
22:00+5e115912 0.1 102014
17 april, sat
sat1701:00+4e116118 0.0 102114
04:00+4e11635 0.0 102113
07:00+4e226340 0.0 102217
10:00+10wnw124213 0.0 1020820
13:00+13wnw44385 0.0 10181630
16:00+14wnw45365 0.0 10171783
19:00+11nw2251100 0.0 101836
22:00+8ese336354 0.0 102037
18 april, sun
sun1801:00+7ese2262100 0.0 102014
04:00+6e225837 0.0 102015
07:00+7ese2258100 0.0 102022
10:00+13sw124194 0.0 1018862
13:00+15w573655 0.0 10162226
16:00+15wnw67379 0.0 10152106
19:00+12nw4655100 0.1 1016200
22:00+8e2280100 2.1 101938
19 april, mon
mon1901:00+8wsw117855 0.2 101925
04:00+6sw11898 0.2 102014
07:00+6ne1286100 0.0 102033
10:00+12wnw245194 0.0 1019901
13:00+15wnw453984 0.0 10171587
16:00+16wnw563798 0.0 10161855
19:00+12nw2352100 0.1 101857
22:00+10s1160100 0.1 101910
20 april, tue
tue2001:00+9nne0160100 0.0 101911
04:00+9e1161100 0.0 101711
07:00+10e126188 0.0 101723
10:00+16w263879 0.0 1014685
13:00+19w51029100 0.0 10122276
16:00+18sw61034100 0.0 10102250
19:00+15sw51045100 0.0 1010305
22:00+13w61259100 0.2 1014585